Location: Hiekkapohja
(62.3333°N, 25.7833°E)
Time: 20:04:09
(UTC+00:00)

Cosmos 2237 Rocket - Pass Details

Date: 07 August 2020
Orbit: 836 x 848 km, 71.0° (Epoch: 21 September)

Event Time Altitude Azimuth Distance (km) Brightness Sun altitude
Rises 00:47:30 0° 318° (NW) 3,416 5.5 -6.3°
Reaches altitude 10° 00:50:41 10° 301° (WNW) 2,474 4.6 -6.1°
Maximum altitude 00:54:23 18° 260° (W) 1,947 3.7 -5.9°
Drops below altitude 10° 00:58:05 10° 218° (SW) 2,458 3.9 -5.6°
Enters shadow 00:59:14 - 210° (SSW) 2,763 4.2 -5.5°
